Regional Weather Roundup
Issued by NWS

Home | Current Version | Previous Version | Text Only | Print | Product List | Glossary Off
Versions: 1 2 3 4 5 6 7 8 9 10 11 12 13 14 15 16 17 18 19 20 21 22 23 24 25 26 27 28 29 30 31 32 33 34 35 36 37 38 39 40 41 42 43 44 45 46 47 48 49 50

000
ASUS44 KMEG 110100
RWRTN
TENNESSEE HOURLY STATE WEATHER ROUNDUP
NATIONAL WEATHER SERVICE MEMPHIS TN
700 PM CST SUN DEC 10 2017

TNZ002-004-019-021-049-052-054-088>092-110200-
WEST TENNESSEE

CITY           SKY/WX    TMP DP  RH WIND       PRES   REMARKS
MEMPHIS INTL   CLEAR     47  30  51 S9        30.18R
NWS MEMPHIS      N/A     47 N/A N/A MISG        N/A
JACKSON        CLEAR     44  28  53 SW9       30.17R
DYERSBURG      CLEAR     47  29  49 SW6       30.16R
$$

TNZ008-025-027-028-033-062-065-066-110200-
NORTH MIDDLE TENNESSEE

CITY           SKY/WX    TMP DP  RH WIND       PRES   REMARKS
NASHVILLE      CLEAR     42  21  43 SW6       30.16R
CLARKSVILLE    CLEAR     41  20  43 SW6       30.13R
SMYRNA         CLEAR     37  21  52 S5        30.17R WCI  33
CROSSVILLE     CLEAR     34  17  50 VRB7      30.11S WCI  28
$$

TNZ061-075-076-078-094-096-097-110200-
SOUTH MIDDLE TENNESSEE

CITY           SKY/WX    TMP DP  RH WIND       PRES   REMARKS
$$

TNZ017-018-042-046-047-110200-
NORTHEAST TENNESSEE

CITY           SKY/WX    TMP DP  RH WIND       PRES   REMARKS
TRI CITIES     CLEAR     32  19  58 SW3       30.13R
$$

TNZ012-013-036-069-073-074-110200-
CENTRAL EAST TENNESSEE

CITY           SKY/WX    TMP DP  RH WIND       PRES   REMARKS
KNOXVILLE      PTCLDY    37  24  59 SW15      30.13S WCI  28
OAK RIDGE      CLEAR     38  22  52 SW5       30.16R WCI  34
$$

TNZ083-085-099-110200-
SOUTHEAST TENNESSEE

CITY           SKY/WX    TMP DP  RH WIND       PRES   REMARKS
CHATTANOOGA    CLEAR     38  22  52 S3        30.19R
$$

SKY/WX REPORTED AS FAIR MEANS FEW OR NO CLOUDS BELOW
12 THOUSAND FEET.





USA.gov is the U.S. government's official web portal to all federal, state and local government web resources and services.